Voltar ao catálogo

FENGYUN 3G

AtivoMeteoVLEO
NORAD 56232·PAYLOAD·🇨🇳 China

Lançado Apr 16, 2023 de Jiuquan Satellite Launch Center

Loading…

Próximas Passagens (próximas 24 horas)

TLE

AtualizadoSource: Space-Track

Época: Sep 14, 2026, 23:42 UTC

1 56232U 23055A   26257.98759243  .00026295  00000-0  40888-3 0  9997
2 56232  49.9912 242.9879 0011685  33.2665 326.9035 15.53622773193968

Acompanhe FENGYUN 3G em tempo real com AllMySat

Download on the App Store